{"data":{"norad_id":64938,"intl_designator":"2025-158G","name":"STARLINK-34730","alt_names":[],"object_type":"PAYLOAD","status":"ACTIVE","operator":null,"country":"US","launch_date":"2025-07-27","launch_site_code":"AFWTR","launch_vehicle":null,"mission":null,"orbit_class":"UNKNOWN","rcs_meters":null,"size_class":null,"mass_kg":null,"dimensions":null,"purposes":["comms"],"wikipedia_slug":null,"has_3d_model":false,"image_url":null,"decayed_at":null,"tle_current":{"epoch":"2026-09-20T14:42:50.811840Z","epoch_age_seconds":114448,"freshness":"FRESH","line1":"1 64938U 25158G   26263.61308810  .00013947  00000+0  43350-3 0  9998","line2":"2 64938  97.2850 121.9168 0001337  65.1667 294.9715 15.33448083 64721","mean_motion":15.33448083,"eccentricity":0.0001337,"inclination_deg":97.285,"raan_deg":121.9168,"arg_perigee_deg":65.1667,"mean_anomaly_deg":294.9715,"bstar":0.0004335,"rev_number":6472,"period_min":93.906015858249,"perigee_km":464.61900284165,"apogee_km":466.44900046749,"semimajor_km":6843.6710016546,"source":"CELESTRAK","updated_at":"2026-09-21T09:00:35.487126Z"}}}